Погода Уст-Хайрюзово

Погода Уст-Хайрюзово : погода сейчас, прогноз погоды и архив. Всё, что Вы хотите узнать о погоде Уст-Хайрюзово!

Поиск расширенной информации на нашем сайте:

Другие новости

Новости СМИ2

Главная страница сайта

Новости сайта

03.07.2017

Напоминаем, что на нашем специализированном сайте Метеоцентр.Азия вы можете получить высокодетализированные автоматические прогнозы погоды по пунктам России, СНГ и мира в авиационном формате (включающие направление и скорость ветра, видимость, явления погоды, количество и форму облачности, нижнюю и верхнюю границу облачности).


Погода Уст-Хайрюзово - сегодня

Время (UTC), дата Ветер
(°,м/с) 
Видим.   Явления Облачность Т
(°С)
Тd
(°С)
f(%) Тe
(°С)
Pmin
(гПа)
dP
(гПа)
Po
(мм)
O2
(г/м3)
Тmin Tmax R s Состояние
почвы
21 19.04.18 350 (С) 10 км  слаб. ливневой снег  10/10 720 м кучево-дожд. 
[Cb cap]
-2.3 -5.6 78 -6  1008.1  0.9  755  308  -3.2    0.0  80  неравномерный
сухой снег
100% 
03 20.04.18 290 (З) 20000 м    8/4 1000 м средняя 
[Sc diur, vesp|Ac trans]
-1.2 -6.8 66 -3  1008.4  0.2  756  307           
09 20.04.18 190 (Ю) 10 км  слаб. ливневой снег  9/6 600 м кучево-дожд., средняя 
[Cb cap|Ac As]
-3.6 -5.3 88 -5  1009.5  0.8  756  309    -0.8  0.0     
12 20.04.18 130 (ЮВ) 20000 м  {ливн. осадки}  8/4 1000 м средняя 
[Sc diur, vesp|Ac As]
-5.1 -6.5 90 -5  1010  0.5  757  311           
21 20.04.18 150 (ЮВ) 20000 м  {ливн. осадки}  6/3 600 м средняя, верхняя 
[Sc diur, vesp|Ac trans|Ci fib]
-7.5 -9.5 86 -9  1010.6  0.2  757  315  -8.2    0.0  80  неравномерный
сухой снег
100% 
03 21.04.18 330 (СЗ) 20000 м    9/3 1000 м средняя 
[Cu hum|Ac trans]
-0.8 -5.3 71 -3  1010.6  0.2  757  307           
06 21.04.18 360 (С) 20000 м    9/4 600 м средняя, верхняя 
[Sc|Ac trans|Ci fib]
-1 -5.5 71 -4  1010.1  -0.5  757  307           
09 21.04.18 030 (СВ) 20000 м  позёмок  4/3 600 м средняя 
[Sc|Ac trans]
-3.4 -8.1 70 -7  1010.4  0.3  757  310    +1.1       
12 21.04.18 020 (С) 20000 м    3/3 600 м 
[Sc]
-5.7 -8.2 82 -7  1010.2  -0.2  757  312           
15 21.04.18 020 (С) 20000 м    ясно 
-7.8 -9.8 86 -9  1009.3  -0.9  756  315           
18 21.04.18 030 (СВ) 20000 м    4/0 средняя 
[Ac trans]
-7.2 -9.3 85 -7  1008.2  -1.1  755  314           
21 21.04.18 180 (Ю) 20000 м    9/8 360 м средняя 
[St|Ac As]
-6 -8.5 82 -6  1007.2  -0.9  755  312  -8.8      80  неравномерный
сухой снег
100% 
00 22.04.18 350 (С) 20000 м    9/4 600 м средняя 
[Sc|Ac As]
-0.2 -3.9 76 -2  1005.8  -1.4  754  304           
03 22.04.18 350 (С) 20000 м    9/0 средняя, верхняя 
[Ac trans|Cs]
+0.3 -4.2 72 -1  1004.8  -1  753  303           
06 22.04.18 010 (С) 20000 м    8/0 средняя 
[Ac As]
+0 -3.5 77 -2  1004.3  -0.5  752  304           
12 22.04.18 170 (Ю) 20000 м    6/0 средняя 
[Ac As]
-4.5 -6.6 85 -4  1005.4  0.6  753  309           
15 22.04.18 140 (ЮВ) 10 км    9/0 средняя 
[Ac As]
-4.7 -6.2 89 -4  1005.9  0.5  754  310           
18 22.04.18 170 (Ю) 20000 м    10/0 средняя 
[Ac und]
-4.5 -5.8 91 -4  1006.7  0.7  754  310           
21 22.04.18 170 (Ю) 10 км  слаб. ливневой снег  10/10 600 м кучево-дожд. 
[Cb cap]
-3.4 -5.1 88 -5  1007.9  1.3  755  309  -5.5    0.0  79  неравномерный
сухой снег
100% 
03 23.04.18 330 (СЗ) 20000 м    9/0 средняя 
[Ac As]
+1 -2 80 -1  1008  0.1  755  303           
06 23.04.18 010 (С) 20000 м    8/0 средняя 
[Ac trans]
+0.1 -2.5 83 -4  1007.9  -0.2  755  304           
09 23.04.18 010 (С) 6-10{10}  10 км    9/8 330 м средняя 
[St|Ac As]
-1.5 -3.8 84 -5  1008.6  0.7  756  307    +1.5  0.0     
15 23.04.18 020 (С) 10 км    9/9 30 м 
[St]
-2.1 -4.9 81 -5  1009.3  0.2  756  308           
18 23.04.18 030 (СВ) 10 км    9/9 500 м 
[Sc]
-3.1 -6.1 80 -5  1009.8  0.5  757  309           
21 23.04.18 020 (С) 20000 м    9/9 660 м 
[Sc]
-1.4 -6.3 69 -3  1009.9  0.1  757  307  -3.4      77  неравномерный
мокрый или
старый снег
100% 
Время (UTC), дата Ветер
(°,м/с) 
Видим.   Явления Облачность Т
(°С)
Тd
(°С)
f(%) Тe
(°С)
Pmin
(гПа)
dP
(гПа)
Po
(мм)
O2
(г/м3)
Тmin Tmax R s Состояние
почвы

Для получения пояснительной информации подведите курсор к названию столбца.

ПОГОДА Уст-Хайрюзово - архив

Всё, что Вы хотите узнать о погоде Уст-Хайрюзово - удобно и подробно!

Выберите нужную дату (начиная с 1 января 2015* года) и нажмите кнопку "Найти".
Будут отображены архивные сводки погоды по пункту Уст-Хайрюзово, начиная с указанной даты.


Отображать данные в формате CSV (для использования в таблицах Excel)


Внимание! Наш архив погоды предназначен исключительно для личного некоммерческого использования в познавательных целях. Если Вам необходимы официальные справки о состоянии погоды (для производственных, юридических, коммерческих и т.п. целей), обращайтесь в органы Росгидромета.

*Примечание: данная дата относится к архиву по метеостанциям СССР (Россия, СНГ, Балтия).
Архив по метеостанциям Зарубежной Европы и Азии (кроме Китая) хранится 10 дней, по другим регионам земного шара (Китай, Африка, Америка, Австралия, Океания) - 1 день.

Уст-Хайрюзово - район местоположения метеостанции


Название, широта, долгота, высота метеостанции:
Уст-Хайрюзово 57.1°ш. 156.8°д. 3 м над ур. моря [Российская Федерация]

Дополнительная информация

В oтличие oт бoльшинства пoгoдных сайтoв мы публикуем пoдрoбную метеoинфoрмацию в детальнoм прoфессиoнальнoм фoрмате.

Характеристики температуры и влажнoсти вoздуха измеряются на высoте 2 м в тени вдали oт зданий и деревьев.
Скoрoсть ветра измеряется на высoте 10 м (на урoвне рoста челoвека скoрoсть ветра ниже в 1.5-2 раза). Если метеoстанция нахoдится в гoрoде или в лесу, тo скoрoсть ветра занижена на 2-4 м/с пo сравнению с oткрытым местoм. Скoрoсть ветра над акватoриями крупных рек и oзёр, а также на вершинах хoлмoв на 2-5 м/с выше, чем в oбычных услoвиях.
Атмoсфернoе давление в разных тoчках местнoсти мoжет значительнo oтличаться oт давления на метеoстанции, в зависимoсти oт услoвий рельефа (при пoдъёме на 10 м давление пoнижается примернo на 1 мм рт.ст.).